This demonstration page uses our WeatherBlox Daily Observations layout. Learn more.

Left ArrowRight Arrow

Hourly Observations for April 5, 2016

Temp ( °F °C ) Dew Point ( °F °C ) Humidity (%) Winds ( mph kmh ) Pressure ( in mb ) Visibility ( mi km ) Precip ( " mm )
12:54 am 00:54 Mostly Cloudy 50 10 27 -2.8 41 41 SE 20 31 30.23 1024 10 16 0.00 0.00
1:54 am 01:54 Partly Cloudy 49 9.4 28 -2.2 44 44 SE 15 24 30.22 1023 10 16 0.00 0.00
2:54 am 02:54 Partly Cloudy 47 8.3 27 -2.8 46 46 SE 15 24 30.19 1022 10 16 0.00 0.00
3:54 am 03:54 Clear 46 7.8 28 -2.2 50 50 SE 15 24 30.18 1022 10 16 0.00 0.00
4:54 am 04:54 Mostly Clear 45 7.2 28 -2.2 52 52 SE 14 22 30.16 1021 10 16 0.00 0.00
5:54 am 05:54 Clear 45 7.2 28 -2.2 52 52 SE 15 24 30.14 1021 10 16 0.00 0.00
6:54 am 06:54 Clear 45 7.2 28 -2.2 52 52 SE 14 22 30.13 1020 10 16 0.00 0.00
7:54 am 07:54 Mostly Sunny 45 7.2 29 -1.7 54 54 SE 14 22 30.13 1020 10 16 0.00 0.00
8:54 am 08:54 Mostly Sunny 46 7.8 29 -1.7 51 51 SSE 25 41 30.12 1020 10 16 0.00 0.00
9:54 am 09:54 Sunny 48 8.9 30 -1.1 50 50 SSE 18 30 30.08 1019 10 16 0.00 0.00
10:54 am 10:54 Sunny 55 12.8 31 -0.6 40 40 SSE 25 41 30.03 1017 10 16 0.00 0.00
11:54 am 11:54 Sunny 60 15.6 34 1.1 38 38 SSE 30 48 29.94 1014 10 16 0.00 0.00
12:54 pm 12:54 Sunny 66 18.9 36 2.2 33 33 SSE 23 37 29.89 1012 10 16 0.00 0.00
1:54 pm 13:54 Sunny 73 22.8 38 3.3 28 28 S 25 41 29.83 1010 10 16 0.00 0.00
2:54 pm 14:54 Sunny 75 23.9 40 4.4 28 28 S 21 33 29.78 1008 10 16 0.00 0.00
3:54 pm 15:54 Sunny 78 25.6 40 4.4 26 26 SW 22 35 29.74 1007 10 16 0.00 0.00
4:54 pm 16:54 Sunny 75 23.9 42 5.6 31 31 SSW 13 20 29.73 1007 10 16 0.00 0.00
5:54 pm 17:54 Mostly Sunny 75 23.9 43 6.1 32 32 WNW 9 15 29.72 1006 10 16 0.00 0.00
6:54 pm 18:54 Sunny 72 22 41 5 33 33 NNW 10 17 29.65 1004 10 16 0.00 0.00
7:54 pm 19:54 Sunny 66 18.9 41 5 40 40 N 9 15 29.72 1007 10 16 0.00 0.00
8:54 pm 20:54 Mostly Cloudy 67 19.4 40 4.4 37 37 NNW 23 37 29.74 1007 10 16 0.00 0.00
9:54 pm 21:54 Cloudy 63 17.2 42 5.6 47 47 N 10 17 29.77 1008 9 14 0.00 0.00
10:54 pm 22:54 Cloudy 61 16.1 48 8.9 63 63 WNW 7 11 29.77 1008 9 14 0.01 0.25
11:54 pm 23:54 Clear 59 15 44 6.7 58 58 W 6 9 29.77 1008 10 16 0.00 0.00

Powered by AerisWeather